Total_Precipitation_Accumulation
0.75 0.53 0.60 0.56 0.51 0.49 0.47 0.55 0.65 0.62 0.61 0.64 0.67 0.71 0.67 0.67 0.67 0.72 0.87 1.02 1.18 1.36 1.49 1.64 1.89 2.11 2.24 2.48 2.33 2.07 2.08 2.25 2.43 2.84 3.44 3.80 3.97 4.06 4.12 4.16 4.26 3.82 3.81
0.56 0.46 0.54 0.52 0.54 0.53 0.55 0.61 0.58 0.54 0.57 0.58 0.59 0.70 0.71 0.71 0.70 0.77 0.84 1.05 1.27 1.50 1.58 1.68 1.82 2.14 2.21 2.37 2.39 2.16 2.07 2.20 2.42 2.99 3.77 4.38 4.59 4.56 4.52 4.56 4.34 3.98 3.99
0.46 0.45 0.50 0.57 0.57 0.59 0.58 0.63 0.57 0.54 0.59 0.63 0.62 0.69 0.79 0.77 0.76 0.78 0.87 1.08 1.38 1.57 1.63 1.74 1.92 2.08 2.20 2.24 2.29 2.23 2.27 2.37 2.60 3.24 4.16 4.38 4.66 4.95 4.91 4.75 4.31 3.98 3.73
0.41 0.46 0.48 0.62 0.67 0.64 0.60 0.61 0.63 0.61 0.63 0.68 0.74 0.75 0.84 0.83 0.83 0.89 1.00 1.13 1.42 1.61 1.83 1.87 1.89 2.05 2.17 2.08 1.94 2.18 2.49 2.58 2.90 3.49 4.02 4.09 4.06 4.88 4.85 4.55 4.16 3.93 3.60
0.48 0.51 0.54 0.63 0.70 0.76 0.76 0.75 0.75 0.72 0.73 0.77 0.84 0.91 1.01 0.99 0.94 1.00 1.10 1.19 1.44 1.58 1.85 2.11 2.09 2.05 2.00 1.91 1.92 2.23 2.86 2.92 3.26 3.49 3.70 4.19 4.40 4.83 4.65 4.54 4.08 3.84 3.70
0.60 0.63 0.58 0.78 0.89 0.94 0.94 0.88 0.88 0.86 0.86 0.93 0.98 1.03 1.11 1.09 1.08 1.17 1.28 1.37 1.62 1.73 1.80 2.07 2.32 2.33 2.18 2.30 2.25 2.38 2.93 3.26 3.31 3.39 3.78 4.43 4.65 4.84 4.49 4.54 4.34 4.06 3.78
0.88 0.87 0.73 0.80 0.84 0.93 0.95 0.98 0.95 0.94 0.93 1.03 1.08 1.09 1.12 1.07 1.07 1.26 1.54 1.57 1.68 1.84 1.86 1.95 2.15 2.30 2.32 2.63 2.70 2.69 3.12 3.37 3.21 3.38 3.91 4.34 4.51 4.60 4.46 4.62 4.59 4.19 3.82
1.05 1.00 0.79 0.82 0.83 0.97 1.03 1.06 1.04 1.03 1.04 1.12 1.18 1.15 1.12 1.08 1.13 1.31 1.54 1.70 1.78 1.80 1.90 2.05 2.09 2.28 2.59 2.81 2.92 2.95 3.06 3.09 2.92 3.22 3.70 3.97 3.91 4.09 4.38 4.57 4.55 4.16 3.78
1.10 1.14 0.99 1.00 1.00 1.07 1.16 1.18 1.27 1.21 1.21 1.25 1.24 1.34 1.26 1.23 1.35 1.50 1.60 1.73 1.77 1.79 1.78 1.91 2.12 2.09 2.41 2.64 2.76 2.83 2.86 3.11 2.95 2.98 3.25 3.85 3.67 3.98 4.32 4.30 4.36 4.22 3.85
1.81 1.86 1.63 1.50 1.46 1.38 1.33 1.27 1.38 1.36 1.40 1.48 1.41 1.42 1.44 1.46 1.53 1.67 1.69 1.81 1.77 1.70 1.75 1.81 1.99 2.08 2.15 2.19 2.17 2.35 2.52 2.73 2.81 2.86 3.31 3.64 3.80 4.42 4.57 4.36 4.36 4.25 3.97
2.60 2.67 2.30 1.87 1.71 1.94 1.78 1.44 1.63 1.54 1.50 1.55 1.54 1.56 1.65 1.94 2.15 2.21 1.96 2.16 2.14 1.99 1.93 1.98 2.01 2.01 2.01 2.05 2.10 2.15 2.13 1.99 2.67 3.20 3.33 3.69 3.85 4.44 4.79 4.58 4.42 4.13 3.86
2.90 2.90 2.59 2.09 2.22 2.47 2.16 2.08 2.05 1.85 1.76 1.69 1.84 1.88 2.08 2.68 2.88 2.51 2.56 2.50 2.54 2.47 2.38 2.38 2.37 2.25 2.04 1.89 2.05 2.09 1.80 1.75 2.33 3.05 3.44 3.90 4.19 4.61 4.72 4.53 4.55 4.44 4.04
3.01 2.73 2.39 2.31 2.38 2.66 2.69 2.59 2.51 2.53 2.52 2.52 2.59 2.61 2.87 3.05 2.91 2.75 3.01 2.84 2.80 2.73 2.67 2.73 2.62 2.29 2.23 2.22 2.15 2.06 1.91 1.98 2.39 2.87 3.49 3.93 4.20 4.62 4.92 4.60 4.50 4.68 4.34
2.99 2.90 2.82 2.85 2.74 2.98 3.41 3.43 3.22 3.17 3.17 3.11 3.02 2.88 3.23 3.42 3.35 3.33 3.40 3.32 3.47 3.45 3.42 3.09 2.91 2.66 2.57 2.33 2.11 2.05 2.14 2.25 2.46 3.07 3.75 3.80 3.96 4.33 4.78 4.82 4.75 4.76 4.57
3.33 3.22 3.16 3.25 3.24 3.38 3.88 4.14 3.86 3.75 3.60 3.46 3.40 3.41 3.44 3.44 3.48 3.66 3.61 3.80 3.76 3.69 3.53 3.36 2.95 2.91 2.73 2.58 2.41 2.22 2.33 2.55 2.69 3.13 3.45 3.64 3.70 4.01 4.63 5.14 5.10 4.98 4.86
3.59 3.40 3.30 3.37 3.36 3.46 3.74 4.01 4.09 4.04 4.11 4.00 3.75 3.73 3.74 3.70 3.78 3.84 3.84 3.80 3.66 3.50 3.58 3.55 3.35 3.33 3.10 2.91 2.69 2.62 2.61 2.68 2.85 3.01 3.28 3.66 3.51 3.65 4.31 5.02 5.45 5.35 5.25
3.88 3.86 3.67 3.65 3.81 3.76 3.80 3.89 3.87 3.90 4.21 4.27 4.29 4.29 4.04 3.91 3.93 3.94 3.97 3.86 3.71 3.64 3.76 3.70 3.67 3.65 3.44 3.25 3.16 3.03 2.94 2.83 2.85 3.02 3.34 3.70 3.78 3.78 4.05 4.48 5.05 5.33 5.34
4.33 4.29 3.90 3.57 3.88 3.97 4.02 4.05 4.06 4.10 4.34 4.40 4.37 4.54 4.28 4.30 4.18 4.07 3.89 3.71 3.68 3.67 3.92 4.01 3.94 3.95 3.81 3.67 3.66 3.34 3.21 3.14 2.93 3.13 3.29 3.54 4.08 4.15 4.16 4.11 4.39 4.87 5.19
4.87 4.62 4.11 3.85 3.97 4.14 4.13 4.25 4.45 4.64 4.66 4.59 4.48 4.57 4.41 4.46 4.41 4.33 4.30 4.23 4.10 4.21 4.25 3.93 4.06 4.14 4.17 4.09 3.71 3.52 3.31 3.19 3.08 3.03 3.08 3.26 3.78 4.15 4.16 4.13 4.17 4.29 4.69
5.00 4.88 4.46 4.28 4.55 4.57 4.45 4.46 4.57 4.72 4.78 4.93 4.96 4.90 4.75 4.72 4.79 5.02 5.04 4.90 4.70 4.63 4.63 4.71 4.69 4.37 4.14 4.11 3.72 3.59 3.40 3.13 3.04 3.04 2.94 3.06 3.40 3.48 3.60 3.67 3.91 3.88 4.06
4.27 4.34 4.56 4.60 4.70 4.74 4.77 4.76 4.92 5.10 5.15 5.17 5.31 5.34 5.20 5.11 5.28 5.70 5.75 5.62 5.25 4.94 4.81 4.83 4.84 4.59 4.25 4.06 4.09 3.89 3.47 3.12 3.02 2.92 2.95 3.04 3.03 3.13 3.35 3.55 3.57 3.50 3.52
4.08 4.27 4.51 4.55 4.74 5.04 5.49 6.03 6.33 6.43 6.27 6.11 6.02 5.95 5.78 5.66 5.81 5.93 6.09 5.76 5.36 5.17 4.91 4.70 4.71 4.55 4.20 4.13 4.23 4.34 3.85 3.53 2.98 2.58 2.73 2.88 2.97 3.09 3.17 3.19 3.23 3.27 3.25
3.70 4.06 4.29 4.63 5.04 5.59 6.31 7.17 7.56 7.34 6.88 6.63 6.32 6.23 5.96 5.74 5.76 5.96 5.69 5.43 5.25 5.01 4.77 4.63 4.68 4.63 4.26 4.11 4.23 4.53 4.21 3.79 3.34 2.98 2.73 2.69 2.87 3.02 3.08 3.10 3.00 3.05 3.06
3.29 3.76 4.25 4.82 5.43 6.14 6.82 7.34 7.56 7.44 7.18 6.87 6.40 5.98 5.59 5.25 5.10 5.06 4.95 4.73 4.67 4.51 4.40 4.15 4.20 4.32 4.25 3.98 3.94 3.77 3.71 3.63 3.61 3.30 3.01 2.80 2.80 2.93 2.97 2.87 2.86 2.98 3.05
3.21 3.69 4.24 4.79 5.51 6.05 6.63 7.05 7.30 7.28 7.19 6.82 6.09 5.45 5.02 4.63 4.37 4.10 3.94 3.91 3.91 3.87 3.69 3.51 3.54 3.58 3.53 3.52 3.54 3.39 3.40 3.40 3.31 3.18 3.05 2.99 2.99 2.89 2.86 2.83 2.83 2.87 3.00
3.21 3.73 4.13 4.54 5.26 5.90 6.40 6.77 7.07 7.06 6.90 6.29 5.56 4.97 4.55 4.22 3.96 3.71 3.56 3.46 3.43 3.34 3.16 3.03 3.04 3.05 3.07 3.09 3.18 3.19 3.16 3.12 3.07 3.12 2.90 2.81 2.82 2.69 2.71 2.72 2.70 2.76 2.88